Wainwright, AK

9:55 AM AKDT on May 26, 2018 (GMT -0800)
Wainwright

Weather History for PAWI - March, 2013

Change the Weather History Date:

Thursday, March 7, 2013

  Actual Average (PABR) Record (PABR)
Temperature  
Mean Temperature -6 °F -  
Max Temperature -2 °F -11 °F 23 °F (1949)
Min Temperature -9 °F -23 °F -47 °F (1923)
Degree Days  
Heating Degree Days 70    
Moisture  
Dew Point -12 °F    
Average Humidity 78    
Maximum Humidity 84    
Minimum Humidity 71    
Precipitation  
Precipitation 0.00 in - - ()
Sea Level Pressure  
Sea Level Pressure 29.80 in    
Wind  
Wind Speed 28 mph (East)    
Max Wind Speed 43 mph    
Max Gust Speed 54 mph    
Averages and records for this station are not official NWS values.
T = Trace of Precipitation, MM = Missing Value Source: NWS Daily Summary

Daily Weather History Graph

Daily Weather History Graph

Search for Another Location

Airport or City:

Astronomy

Mar. 07, 2013 Rise Set
Actual Time 8:38 AM AKST 7:05 PM AKST
Civil Twilight 7:35 AM AKST 8:08 PM AKST
Nautical Twilight 6:21 AM AKST 9:22 PM AKST
Astronomical Twilight 4:58 AM AKST 10:47 PM AKST
Moon 8:15 AM AKST (3/7) 12:45 PM AKST (3/7)
Length of Visible Light 12h 32m
Length of Day
10h 27m
Waning Crescent, 19% of the Moon is Illuminated
Mar 7
Waning Crescent
Mar 11
New
Mar 19
First Quarter
Mar 27
Full
Apr 2
Last Quarter

Hourly Weather History & Observations

Time (AKST) Temp. Windchill Dew Point Humidity Pressure Visibility Wind Dir Wind Speed Gust Speed Precip Events Conditions
12:53 AM -8.0 °F -35.8 °F -13.0 °F 79% 29.87 in 0.5 mi East 27.6 mph 35.7 mph N/A Snow Snow
1:53 AM -7.1 °F -34.1 °F -13.0 °F 75% 29.89 in 0.8 mi East 26.5 mph - N/A   Haze
2:00 AM -7.6 °F -35.7 °F -13.0 °F 77% 29.88 in 0.8 mi East 28.8 mph - N/A   Haze
3:16 AM -7.6 °F -34.8 °F -13.0 °F 77% 29.88 in 0.8 mi East 26.5 mph 33.4 mph N/A Snow Light Snow
3:53 AM -8.0 °F -36.6 °F -13.0 °F 79% 29.90 in 0.8 mi East 29.9 mph - N/A   Haze
4:49 AM -7.6 °F -34.4 °F -14.8 °F 71% 29.88 in 0.8 mi East 25.3 mph - N/A   Haze
4:53 AM -8.0 °F -35.3 °F -14.1 °F 75% 29.88 in 0.8 mi East 26.5 mph - N/A   Haze
5:53 AM -9.0 °F -35.3 °F -14.1 °F 79% 29.88 in 1.0 mi East 23.0 mph - N/A   Haze
6:02 AM -9.4 °F -35.8 °F -14.8 °F 77% 29.88 in 0.8 mi East 23.0 mph - N/A   Haze
6:29 AM -9.4 °F -37.7 °F -14.8 °F 77% 29.87 in 0.8 mi East 27.6 mph - N/A   Haze
6:53 AM -9.0 °F -37.2 °F -14.1 °F 79% 29.88 in 0.8 mi East 27.6 mph - N/A   Haze
7:53 AM -8.0 °F -33.9 °F -14.1 °F 75% 29.88 in 0.8 mi East 23.0 mph 32.2 mph N/A   Haze
8:39 AM -9.4 °F -37.7 °F -14.8 °F 77% 29.87 in 0.2 mi East 27.6 mph 34.5 mph N/A   Unknown
8:53 AM -9.0 °F -38.1 °F -14.1 °F 79% 29.87 in 0.2 mi East 29.9 mph - N/A   Unknown
9:53 AM -9.0 °F -38.5 °F -14.1 °F 79% 29.86 in 0.2 mi East 31.1 mph - N/A   Haze
10:36 AM -9.4 °F -39.0 °F -14.8 °F 77% 29.85 in 0.2 mi East 31.1 mph 35.7 mph N/A   Unknown
11:53 AM -9.0 °F -38.1 °F -14.1 °F 79% 29.85 in 0.2 mi East 29.9 mph 38.0 mph N/A Snow Heavy Snow
12:53 PM -9.0 °F -37.7 °F -15.0 °F 75% 29.85 in 0.2 mi East 28.8 mph 36.8 mph N/A   Overcast
1:17 PM -9.4 °F -37.3 °F -14.8 °F 77% 29.84 in 0.2 mi East 26.5 mph - N/A   Unknown
1:53 PM -8.0 °F -36.2 °F -14.1 °F 75% 29.85 in 0.2 mi East 28.8 mph - N/A   Unknown
2:53 PM -8.0 °F -35.8 °F -13.0 °F 79% 29.81 in 0.2 mi East 27.6 mph - N/A   Unknown
3:49 PM -7.6 °F - -11.2 °F 84% 29.79 in 0.2 mi North - - N/A   Unknown
3:53 PM -7.1 °F -35.0 °F -11.9 °F 79% 29.79 in 0.2 mi East 28.8 mph 34.5 mph N/A   Unknown
4:49 PM -5.8 °F -32.9 °F -11.2 °F 77% 29.77 in 0.2 mi ENE 27.6 mph 35.7 mph 0.00 in   Unknown
4:53 PM -6.0 °F -33.5 °F -11.9 °F 75% 29.77 in 0.2 mi ENE 28.8 mph 35.7 mph 0.00 in   Unknown
5:53 PM -6.0 °F -32.7 °F -11.0 °F 79% 29.75 in 0.2 mi ENE 26.5 mph - 0.00 in   Unknown
6:50 PM -5.8 °F -32.0 °F -9.4 °F 84% 29.73 in 0.2 mi ENE 25.3 mph - 0.00 in   Unknown
6:53 PM -5.1 °F -31.9 °F -9.9 °F 80% 29.73 in 0.2 mi ENE 27.6 mph 34.5 mph 0.00 in   Unknown
7:34 PM -5.8 °F -33.3 °F -9.4 °F 84% 29.72 in 0.2 mi East 28.8 mph 36.8 mph 0.00 in Snow Heavy Snow
7:53 PM -5.1 °F -32.7 °F -9.9 °F 80% 29.73 in 0.2 mi ENE 29.9 mph 35.7 mph 0.00 in   Unknown
8:25 PM -5.8 °F -33.7 °F -9.4 °F 84% 29.71 in 0.2 mi ENE 29.9 mph - 0.00 in   Unknown
8:33 PM -5.8 °F -34.1 °F -9.4 °F 84% 29.71 in 0.2 mi ENE 31.1 mph 36.8 mph 0.00 in Snow Heavy Snow
8:53 PM -4.0 °F -31.6 °F -9.9 °F 76% 29.71 in 0.2 mi ENE 31.1 mph 36.8 mph 0.00 in   Unknown
9:22 PM -4.0 °F -31.6 °F -9.4 °F 78% 29.69 in 0.2 mi ENE 31.1 mph 46.0 mph 0.00 in Snow Heavy Snow
9:53 PM -4.0 °F -33.4 °F -9.0 °F 79% 29.68 in 0.2 mi ENE 36.8 mph 42.6 mph 0.00 in Snow Heavy Snow
10:12 PM -4.0 °F -31.6 °F -9.4 °F 78% 29.68 in 0.2 mi ENE 31.1 mph 42.6 mph 0.00 in Snow Heavy Snow
10:48 PM -2.2 °F -30.9 °F -9.4 °F 71% 29.66 in 0.2 mi ENE 36.8 mph 42.6 mph 0.00 in Snow Heavy Snow
10:53 PM -2.9 °F -32.3 °F -9.0 °F 75% 29.65 in 0.2 mi ENE 38.0 mph 44.9 mph 0.00 in Snow Heavy Snow
11:53 PM -2.0 °F -32.2 °F -7.1 °F 79% 29.58 in 0.2 mi ENE 42.6 mph 54.1 mph 0.00 in Snow Heavy Snow